INMARSAT 2-F4

Satellite information

Favourite Embed

Satellite Type and Status

PAYLOADIN ORBIT

Key statistics

Satellite INMARSAT 2-F4 at a glance.

Uptime

12249

Days in orbit

Revolutions

≈ 1.0

Per day

Orbit

OTHER

Other

Inclination

11.9

Latest

Satellite identification and parameters

Extended collection of information and parameters for INMARSAT 2-F4.

Object identification

Identified? True

Debris? False

Object name: INMARSAT 2-F4

International designator: 1992-021B

Object number (NORAD): 21940

Object ID (CCSDS): 21940

Country: INTERNATIONAL MARITIME SATELLITE ORGANIZATION (INMARSAT) (IM)

Current information (Y/N): Y

RCS size: LARGE

Orbital parameters

Period: 1470.252 minutes

Inclination: 11.9413 deg

SMA: 42830.653 km

Apoapsis: 36493.759 km

Periapsis: 36411.277 km

RAAN: 16.9362 deg

Eccentricy: 0.00096289

Argument of periapsis: 179.875 deg

Mean anomaly: 186.6286 deg

Mean motion: 0.97942393 rev/day

Mean motion (dot): -0.00000032 rev/day2

B* drag term: 0.0 1/REarth

Two-line elements (TLE)

Creation date: Oct. 28, 2025, 2:18 a.m.

Reference frame: TEME

Reference center: EARTH

Epoch: Oct. 27, 2025, 7:20 a.m. UTC

TLE line 0: 0 INMARSAT 2-F4

TLE line 1: 1 21940U 92021B 25300.30603743 -.00000032 00000-0 00000-0 0 9992

TLE line 2: 2 21940 11.9413 16.9362 0009629 179.8750 186.6286 0.97942393 48372

Live tracking on map

Real-time ground track for satellite INMARSAT 2-F4.

In-orbit conjunctions

A list of the most updated potential collisions computed for object INMARSAT 2-F4.

Target Orbit TCA Probability of collision Miss distance Type
SL-12 R/B(2) OTHER 2025-09-08 13:30:05 TBA 1482.0 (m) ROCKET BODY

Associated space launch

Télécom 2B and Inmarsat-2 F4 are French and International communications satellites operating in GEO.

INMARSAT 2-F4 was lifted into orbit during the mission ‘Ariane 44L | Télécom 2B & Inmarsat-2 F4’, on board a Ariane 44L space rocket.

The launch took place on April 15, 1992, 11:25 p.m. from Ariane Launch Area 2.

For more information about the launch, click the button.

Launch to space Ariane 44L | Télécom 2B & Inmarsat-2 F4
Ariane 44L | Télécom 2B & Inmarsat-2 F4

Agency: N/A

Status: Launch Successful

Launch date: April 15, 1992, 11:25 p.m. UTC

Rocket: Ariane 44L

Launch pad: Ariane Launch Area 2

Location: Guiana Space Centre, French Guiana

...

Latest news about this satellite

There are no fresh news available about this satellite. Check back as we update our databases every day.


Newsletter sign-up

Weekly statistics, charts and insights to help you stay on top of the space industry.